Location: Newark
(59.4564°N, 26.6917°E)
Time: 11:36:10
(UTC+00:00)

SR - Pass Details

Date: 22 November 2019
Orbit: 573 x 882 km, 66.7° (Epoch: 10 December)

Event Time Altitude Azimuth Distance (km) Brightness Sun altitude
Rises 19:55:05 0° 311° (NW) 3,472 ? -44.9°
Reaches altitude 10° 19:57:35 10° 309° (NW) 2,545 ? -45.1°
Enters shadow 19:58:30 15° 307° (NW) 2,210 ? -45.2°
Maximum altitude 20:03:29 68° 228° (SW) 951 - -45.6°
Drops below altitude 10° 20:09:18 10° 147° (SSE) 2,504 - -46.1°
Sets 20:11:45 0° 145° (SE) 3,411 - -46.3°
